Location: Newark
(13.8117°N, 3.6025°W)
Time: 15:29:33
(UTC+00:00)

Explorer 11/Cluster Stage 4 - Pass Details

Date: 27 August 2019
Orbit: 467 x 1260 km, 28.8° (Epoch: 17 September)

Event Time Altitude Azimuth Distance (km) Brightness Sun altitude
Rises 12:25:45 0° 301° (WNW) 4,147 10.3 85.6°
Reaches altitude 10° 12:29:01 10° 311° (NW) 3,218 9.9 85.1°
Maximum altitude 12:36:13 32° 12° (NNE) 1,979 9.1 83.8°
Drops below altitude 10° 12:43:09 10° 73° (ENE) 3,092 9.7 82.4°
Sets 12:46:12 0° 82° (E) 3,966 10.1 81.7°
